Skip Page Navigation
NASA JPL Caltech
NASA Logo - Jet Propulsion Laboratory + View the NASA Portal
+ Center for Near-Earth Object Studies
JPL Home Earth Solar System Stars & Galaxies Technology
JPL Solar System Dynamics
BODIES ORBITS EPHEMERIDES TOOLS PHYSICAL DATA DISCOVERY FAQ SITE MAP
JPL Small-Body Database Browser
Search: [ help ]  
134151 (2005 AL58)
Classification: Main-belt Asteroid          SPK-ID: 2134151
Ephemeris | Orbit Diagram | Orbital Elements | Mission Design | Physical Parameters | Discovery Circumstances ]

[ show orbit diagram ]
Orbital Elements at Epoch 2459200.5 (2020-Dec-17.0) TDB
Reference: JPL 20 (heliocentric ecliptic J2000)
 Element Value Uncertainty (1-sigma)   Units 
e .09857226316844957 3.8958e-08  
a 2.759876018681526 1.7534e-08 au
q 2.487828793455757 1.1127e-07 au
i 8.26041609147636 4.28e-06 deg
node 101.2272373623667 2.9072e-05 deg
peri 181.4445896572689 3.6753e-05 deg
M 9.328408467478921 2.1653e-05 deg
tp 2459157.105185145773
(2020-Nov-03.60518515)
0.00010081 TDB
period 1674.683672138079
4.59
1.5959e-05
4.369e-08
d
yr
n .2149659699854754 2.0485e-09 deg/d
Q 3.031923243907294 1.9262e-08 au
  Orbit Determination Parameters
   # obs. used (total)      655  
   data-arc span      7089 days (19.41 yr)  
   first obs. used      2001-02-16  
   last obs. used      2020-07-15  
   planetary ephem.      DE441  
   SB-pert. ephem.      SB441-N16  
   condition code      0  
   norm. resid. RMS      .58336  
   source      ORB  
   producer      Otto Matic  
   solution date      2021-Apr-13 18:07:07  

Additional Information
 Earth MOID = 1.46946 au 
 Jupiter MOID = 2.09314 au 
 T_jup = 3.320 
[ show covariance matrix ]

Ephemeris | Orbit Diagram | Orbital Elements | Mission Design | Physical Parameters | Discovery Circumstances ]

Physical Parameter Table
Parameter Symbol Value Units Sigma Reference Notes
absolute magnitude H 15.42   n/a E2021B55  
diameter diameter 5.478 km 0.186 urn:nasa:pds:neowise_diameters_albedos::2.0[mainbelt] (http://adsabs.harvard.edu/abs/2011ApJ...741...68M)  
geometric albedo albedo 0.054   0.010 urn:nasa:pds:neowise_diameters_albedos::2.0[mainbelt] (http://adsabs.harvard.edu/abs/2011ApJ...741...68M)  

134151 (2005 AL58)          Discovered 2005-Jan-15 by LINEAR at Socorro
Reference: 20060711/Numbers.arcLast Updated: 2006-07-17
Ephemeris | Orbit Diagram | Orbital Elements | Mission Design | Physical Parameters | Discovery Circumstances ]
ABOUT SSD CREDITS/AWARDS PRIVACY/COPYRIGHT GLOSSARY LINKS
FirstGov 2021-Apr-15 06:19 UT
(server date/time)  
NASA Home Page
Site Manager:   Ryan S. Park
Webmaster  Alan B. Chamberlin